Tracking 25620 objects as of 18-May-2022
HD Live streaming from Space Station
objects crossing your sky now

COSMOS 2251 DEB

Track COSMOS 2251 DEB now!
10-day predictions


NORAD ID: 34674
Int'l Code: 1993-036XU
Perigee: 611.4 km
Apogee: 761.3 km
Inclination: 74.0 °
Period: 98.3 minutes
Semi major axis: 7057 km
RCS: 0.0033 m2 (small)
Launch date: June 16, 1993
Source: Commonwealth of Independent States (former USSR) (CIS)
Launch site: PLESETSK MISSILE AND SPACE COMPLEX (PKMTR)

Note: This is SATELLITE DEBRIS
aabbcc
Your satellite tracking list
Your tracking list is empty




NASA's NSSDC Master Catalog

Two Line Element Set (TLE):
1 34674U 93036XU  22137.45518387  .00008165  00000-0  14276-2 0  9993
2 34674  73.9829 199.7433 0106175 109.1040 252.1660 14.64342140700597
Source of the keplerian elements: AFSPC